ICHECE1 Weather Reports


time (UTC)temp
C
wind
direction
speed
KPH
gust
KPH
rain 1hr
cm
rain 24hr
cm
rain mn
cm
humidity
%
barometer
mb
20260906023037 16 293 1.6 4.8 0.00 0.00 0.00 74 1025.6
20260906022017 16 270 1.6 4.8 0.00 0.00 0.00 73 1025.6
20260906021017 16 270 1.6 3.2 0.00 0.00 0.00 72 1025.5
20260906020018 16 270 1.6 3.2 0.00 0.00 0.00 71 1025.4
20260906015017 17 270 1.6 4.8 0.00 0.00 0.00 71 1025.5
20260906014017 17 270 3.2 6.4 0.00 0.00 0.00 71 1025.4
20260906013017 16 270 3.2 6.4 0.00 0.00 0.00 72 1025.4
20260906012017 16 270 1.6 3.2 0.00 0.00 0.00 100
20260906011017 -17 270 1.6 3.2 0.00 0.00 0.00 100
20260906010017 16 270 1.6 1.6 0.00 0.00 0.00 100
20260906005017 16 270 1.6 3.2 0.00 0.00 0.00
20260906004017 15 270 3.2 4.8 0.00 0.00 0.00 100
20260906003017 15 270 1.6 3.2 0.00 0.00 0.00 85 1025.3
20260906002017 15 0.0 1.6 0.00 0.00 0.00 77 1025.3
20260906001037 15 293 1.6 1.6 0.00 0.00 0.00 77 1025.2
20260906000037 14 0.0 1.6 0.00 0.00 0.00 77 1025.2
20260905235017 14 0.0 0.0 0.00 0.00 0.00 77 1025.1
20260905234017 15 0.0 1.6 0.00 0.00 0.00 76 1025.0
20260905233017 15 0.0 1.6 0.00 0.00 0.00 78 1024.9
20260905232017 15 0.0 0.0 0.00 0.00 0.00 77 1024.9
20260905231017 15 0.0 1.6 0.00 0.00 0.00 76 1025.0
20260905230016 15 0.0 1.6 0.00 0.00 0.00 75 1024.9
20260905225040 16 0.0 1.6 0.00 0.00 0.00 74 1024.8
20260905224017 16 0.0 0.0 0.00 0.00 0.00 70 1024.6
20260905223017 16 0.0 1.6 0.00 0.00 0.00 71 1024.7
20260905222037 17 0.0 1.6 0.00 0.00 0.00 69 1024.7
20260905221057 17 315 1.6 3.2 0.00 0.00 0.00 70 1024.7
20260905220016 17 0.0 1.6 0.00 0.00 0.00 68 1024.7
20260905215017 18 0.0 0.0 0.00 0.00 0.00 67 1024.5
20260905214017 18 0.0 1.6 0.00 0.00 0.00 66 1024.5
20260905213016 19 315 1.6 3.2 0.00 0.00 0.00 66 1024.4
20260905212017 19 315 1.6 3.2 0.00 0.00 0.00 65 1024.3
20260905211016 19 0.0 1.6 0.00 0.00 0.00 65 1024.1
20260905210016 19 315 1.6 1.6 0.00 0.00 0.00 65 1024.0
20260905205017 20 0.0 1.6 0.00 0.00 0.00 64 1023.9
20260905204037 20 0.0 1.6 0.00 0.00 0.00 63 1023.7
20260905203017 20 315 1.6 3.2 0.00 0.00 0.00 61 1023.8
20260905202017 20 338 1.6 3.2 0.00 0.00 0.00 59 1023.7
20260905201017 20 0 1.6 3.2 0.00 0.00 0.00 58 1023.5
20260905200017 20 0 3.2 4.8 0.00 0.00 0.00 56 1023.4
20260905195016 21 0 3.2 4.8 0.00 0.00 0.00 55 1023.1
20260905194017 21 0 4.8 8.0 0.00 0.00 0.00 53 1023.1
20260905193016 22 338 6.4 9.7 0.00 0.00 0.00 48 1023.1
20260905192017 22 0 1.6 3.2 0.00 0.00 0.00 46 1022.6
20260905191017 22 338 3.2 6.4 0.00 0.00 0.00 45 1022.9
20260905190016 22 338 3.2 4.8 0.00 0.00 0.00 44 1023.0
20260905185057 22 0 3.2 4.8 0.00 0.00 0.00 43 1022.7
20260905184016 22 338 3.2 3.2 0.00 0.00 0.00 41 1022.8
20260905183016 23 338 1.6 4.8 0.00 0.00 0.00 40 1022.5
20260905182016 23 338 1.6 3.2 0.00 0.00 0.00 39 1022.4
20260905181016 23 338 4.8 6.4 0.00 0.00 0.00 38 1022.3
20260905180016 23 338 3.2 4.8 0.00 0.00 0.00 37 1022.0
20260905174017 23 338 4.8 6.4 0.00 0.00 0.00 34 1021.7
20260905173016 24 338 4.8 9.7 0.00 0.00 0.00 37 1021.6
20260905172016 25 338 4.8 8.0 0.00 0.00 0.00 37 1021.4
20260905171016 26 338 4.8 8.0 0.00 0.00 0.00 39 1021.4
20260905170016 26 338 8.0 12.9 0.00 0.00 0.00 40 1021.2
20260905165016 27 338 4.8 8.0 0.00 0.00 0.00 37 1020.8
20260905164016 27 338 4.8 8.0 0.00 0.00 0.00 36 1020.8
20260905163016 27 338 4.8 12.9 0.00 0.00 0.00 35 1020.8
20260905162036 28 338 6.4 12.9 0.00 0.00 0.00 34 1020.9
20260905161016 28 338 6.4 14.5 0.00 0.00 0.00 34 1020.8
20260905160016 29 338 8.0 12.9 0.00 0.00 0.00 34 1020.7
20260905155016 30 338 9.7 16.1 0.00 0.00 0.00 86 1020.6
20260905154016 30 338 8.0 14.5 0.00 0.00 0.00
20260905153016 30 338 9.7 16.1 0.00 0.00 0.00 81 1020.4
20260905152016 30 338 8.0 12.9 0.00 0.00 0.00 31 1020.2
20260905151036 31 338 14.5 25.7 0.00 0.00 0.00 42 1020.1
20260905150016 31 338 11.3 20.9 0.00 0.00 0.00 30 1020.1
20260905145036 31 338 11.3 24.1 0.00 0.00 0.00
20260905144036 32 0 12.9 20.9 0.00 0.00 0.00 29 1019.8
20260905143017 32 338 14.5 22.5 0.00 0.00 0.00 30 1019.5
20260905142036 32 338 14.5 20.9 0.00 0.00 0.00 31 1019.4
20260905141018 32 338 14.5 25.7 0.00 0.00 0.00 32 1019.3
20260905140016 -17 338 14.5 27.4 0.00 0.00 0.00 82
20260905135016 32 338 12.9 22.5 0.00 0.00 0.00 41 1019.3
20260905134016 31 338 12.9 20.9 0.00 0.00 0.00 59 1019.2
20260905133016 32 338 16.1 25.7 0.00 0.00 0.00 34 1019.0
20260905132016 32 0 17.7 27.4 0.00 0.00 0.00 35 1018.9
20260905131016 32 338 17.7 27.4 0.00 0.00 0.00 36 1018.8
20260905130016 33 338 14.5 22.5 0.00 0.00 0.00 36 1018.6
20260905125016 33 338 14.5 24.1 0.00 0.00 0.00 36 1018.6
20260905124016 34 0 16.1 25.7 0.00 0.00 0.00
20260905123018 -17 338 12.9 20.9 0.00 0.00 0.00
20260905122038 -17 315 6.4 14.5 0.00 0.00 0.00
20260905121059 36 315 6.4 16.1 0.00 0.00 0.00 30 1018.4
20260905120018 35 315 6.4 17.7 0.00 0.00 0.00 79 1018.7
20260905115018 35 315 6.4 22.5 0.00 0.00 0.00 31 1018.6
20260905114016 35 315 4.8 11.3 0.00 0.00 0.00 32 1018.5
20260905113018 35 315 6.4 14.5 0.00 0.00 0.00 79 1018.8
20260905112018 35 270 8.0 17.7 0.00 0.00 0.00 32 1018.8
20260905111020 35 270 9.7 20.9 0.00 0.00 0.00 80 1018.9
20260905110018 35 270 6.4 16.1 0.00 0.00 0.00 82 1018.9
20260905105018 35 180 8.0 17.7 0.00 0.00 0.00 32 1018.9
20260905104018 35 270 9.7 17.7 0.00 0.00 0.00 32 1019.0
20260905103017 35 270 6.4 14.5 0.00 0.00 0.00 32 1019.0
20260905102018 34 270 9.7 16.1 0.00 0.00 0.00 53 1019.2
20260905101017 34 270 8.0 12.9 0.00 0.00 0.00 32 1019.1
20260905100038 34 270 6.4 12.9 0.00 0.00 0.00 33 1019.1
20260905095018 33 270 8.0 17.7 0.00 0.00 0.00 33 1019.1
20260905094017 33 270 9.7 14.5 0.00 0.00 0.00 81 1019.3
20260905093017 33 203 6.4 9.7 0.00 0.00 0.00 35 1019.1
20260905092017 -17 203 3.2 8.0 0.00 0.00 0.00
20260905091018 32 203 4.8 12.9 0.00 0.00 0.00 92 1019.1
20260905090017 32 248 8.0 14.5 0.00 0.00 0.00 36 1019.2
20260905085018 31 248 4.8 14.5 0.00 0.00 0.00 37 1019.3
20260905084018 31 248 6.4 12.9 0.00 0.00 0.00 38 1019.4
20260905083017 31 180 3.2 9.7 0.00 0.00 0.00 38 1019.4
20260905082018 30 180 4.8 8.0 0.00 0.00 0.00 39 1019.2
20260905081017 30 203 3.2 6.4 0.00 0.00 0.00 39 1019.3
20260905080058 30 203 1.6 4.8 0.00 0.00 0.00 40 1019.3
20260905075017 29 203 4.8 9.7 0.00 0.00 0.00 40 1019.3
20260905074017 28 203 3.2 9.7 0.00 0.00 0.00 40 1019.2
20260905073038 28 180 3.2 6.4 0.00 0.00 0.00 41 1019.2
20260905072017 28 180 3.2 9.7 0.00 0.00 0.00 43 1019.3
20260905071019 27 180 3.2 9.7 0.00 0.00 0.00 45 1019.2
20260905070017 26 180 3.2 8.0 0.00 0.00 0.00 45 1019.1
20260905065018 26 180 4.8 9.7 0.00 0.00 0.00 47 1019.2
20260905064017 25 180 3.2 8.0 0.00 0.00 0.00 49 1019.2
20260905063017 24 180 3.2 8.0 0.00 0.00 0.00 51 1019.2
20260905062017 23 180 3.2 9.7 0.00 0.00 0.00 53 1019.2
20260905061017 22 180 3.2 9.7 0.00 0.00 0.00 55 1019.1
20260905060017 21 180 4.8 11.3 0.00 0.00 0.00 58 1019.0
20260905055037 21 180 3.2 9.7 0.00 0.00 0.00 61 1019.0
20260905054017 20 180 3.2 11.3 0.00 0.00 0.00 63 1018.8
20260905053017 19 203 1.6 3.2 0.00 0.00 0.00 65 1019.0
20260905052017 18 203 1.6 4.8 0.00 0.00 0.00 66 1019.0
20260905051017 17 203 1.6 6.4 0.00 0.00 0.00 68 1018.8
20260905050037 17 203 1.6 4.8 0.00 0.00 0.00 69 1018.8
20260905045017 17 203 1.6 4.8 0.00 0.00 0.00 70 1018.7
20260905044037 16 0.0 3.2 0.00 0.00 0.00 70 1018.7
20260905043037 16 0.0 3.2 0.00 0.00 0.00 71 1018.7
20260905042017 16 0.0 3.2 0.00 0.00 0.00 71 1018.6
20260905041017 16 0.0 3.2 0.00 0.00 0.00 70 1018.6
20260905040019 16 0.0 4.8 0.00 0.00 0.00 70 1018.8
20260905035017 16 0.0 1.6 0.00 0.00 0.00 70 1018.8
20260905034017 16 0.0 1.6 0.00 0.00 0.00 70 1018.7
20260905033017 16 0.0 1.6 0.00 0.00 0.00 70 1018.8
20260905032017 16 0.0 1.6 0.00 0.00 0.00 69 1018.8
20260905031017 16 0.0 3.2 0.00 0.00 0.00 69 1018.8
20260905030017 16 0.0 1.6 0.00 0.00 0.00 68 1018.7
20260905025017 16 203 1.6 3.2 0.00 0.00 0.00 69 1018.6
20260905024037 16 0.0 3.2 0.00 0.00 0.00 68 1018.6